AIC1UB LPPR-EDDL

Flight info

Callsign AIC1UB
Flight time 2h 16m
Altitude 34000
Route TURON P600 ASDEB DCT LOTEE DCT AZFIC UN741 NTS DCT GONEK DCT TABOV UN858 OQQAL DCT RANUX/N0447F350 DCT VALEK DCT LUTAX DCT DIK/N0413F230 N853 ARCKY T853 NVO T857 BIKMU BIKMU1A
Aircraft A320/M-SDE3FGHIRWY/LB1

Departure

Time 2026-05-04 17:18
Airport Francisco de Sá Carneiro Airport (LPPR)

Arrival

Time 2026-05-04 19:34
Airport Düsseldorf Airport (EDDL)
Time Latitude Longitude Altitude Speed Heading
2026-05-04 16:43 41.23533 -8.67501 265 ft 0 kts 260°
2026-05-04 16:52 41.23533 -8.67500 265 ft 0 kts 260°
2026-05-04 17:05 41.23534 -8.67498 265 ft 0 kts 260°
2026-05-04 17:05 41.23539 -8.67458 264 ft 3 kts 260°
2026-05-04 17:06 41.23541 -8.67444 264 ft 0 kts 260°
2026-05-04 17:06 41.23543 -8.67427 254 ft 3 kts 228°
2026-05-04 17:07 41.23563 -8.67404 271 ft 0 kts 167°
2026-05-04 17:07 41.23574 -8.67407 266 ft 3 kts 167°
2026-05-04 17:07 41.23583 -8.67410 262 ft 0 kts 167°
2026-05-04 17:10 41.23581 -8.67409 262 ft 2 kts 167°
2026-05-04 17:10 41.23348 -8.67390 264 ft 9 kts 227°
2026-05-04 17:11 41.23332 -8.67438 265 ft 3 kts 258°
2026-05-04 17:11 41.23331 -8.67444 266 ft 0 kts 258°
2026-05-04 17:11 41.23326 -8.67482 267 ft 0 kts 260°
2026-05-04 17:12 41.23321 -8.67516 269 ft 10 kts 259°
2026-05-04 17:12 41.23306 -8.67612 275 ft 0 kts 258°
2026-05-04 17:14 41.23306 -8.67611 275 ft 0 kts 258°
2026-05-04 17:16 41.23321 -8.67736 277 ft 2 kts 343°
2026-05-04 17:17 41.23376 -8.67753 275 ft 14 kts 348°
2026-05-04 17:17 41.25475 -8.68297 360 ft 170 kts 347°
2026-05-04 17:18 41.26677 -8.68599 872 ft 181 kts 345°
2026-05-04 17:18 41.29451 -8.69354 1742 ft 227 kts 345°
2026-05-04 17:19 41.32746 -8.70223 3144 ft 247 kts 345°
2026-05-04 17:19 41.36173 -8.71117 4905 ft 254 kts 346°
2026-05-04 17:20 41.39680 -8.72033 6518 ft 262 kts 346°
2026-05-04 17:20 41.43368 -8.72511 8075 ft 275 kts
2026-05-04 17:20 41.45269 -8.72053 8896 ft 279 kts
2026-05-04 17:21 41.49154 -8.71063 10290 ft 291 kts
2026-05-04 17:21 41.53434 -8.69995 10718 ft 336 kts
2026-05-04 17:22 41.55807 -8.69397 10978 ft 354 kts
2026-05-04 17:22 41.58254 -8.68771 11560 ft 361 kts
2026-05-04 17:23 41.65771 -8.66842 13584 ft 372 kts
2026-05-04 17:23 41.68290 -8.66198 14211 ft 375 kts
2026-05-04 17:23 41.73462 -8.64878 15420 ft 381 kts
2026-05-04 17:24 41.76076 -8.64212 16003 ft 384 kts
2026-05-04 17:24 41.84045 -8.62188 17780 ft 393 kts
2026-05-04 17:25 41.86742 -8.61500 18361 ft 396 kts
2026-05-04 17:25 41.92200 -8.60098 19390 ft 402 kts
2026-05-04 17:26 41.97748 -8.58673 20387 ft 408 kts
2026-05-04 17:26 42.05243 -8.56743 21606 ft 415 kts
2026-05-04 17:27 42.11906 -8.55337 22621 ft 419 kts
2026-05-04 17:27 42.17748 -8.54510 23419 ft 424 kts
2026-05-04 17:28 42.22649 -8.53829 23976 ft 428 kts
2026-05-04 17:29 42.31545 -8.52426 24090 ft 429 kts
2026-05-04 17:29 42.40439 -8.50976 24084 ft 429 kts
2026-05-04 17:30 42.49295 -8.49145 24084 ft 433 kts 14°
2026-05-04 17:31 42.54669 -8.45447 24083 ft 442 kts 34°
2026-05-04 17:31 42.61744 -8.37171 24901 ft 451 kts 38°
2026-05-04 17:32 42.66510 -8.31534 25458 ft 457 kts 38°
2026-05-04 17:33 42.73780 -8.22914 26286 ft 466 kts 39°
2026-05-04 17:33 42.76222 -8.20003 26553 ft 468 kts 39°
2026-05-04 17:34 42.83601 -8.11189 27318 ft 475 kts 39°
2026-05-04 17:34 42.86091 -8.08211 27559 ft 477 kts 39°
2026-05-04 17:35 42.93629 -7.99153 28250 ft 483 kts 39°
2026-05-04 17:35 42.98697 -7.93059 28753 ft 486 kts 39°
2026-05-04 17:35 43.01234 -7.90008 29062 ft 485 kts 39°
2026-05-04 17:36 43.03735 -7.86995 29351 ft 485 kts 39°
2026-05-04 17:36 43.06259 -7.83943 29652 ft 485 kts 39°
2026-05-04 17:36 43.08789 -7.80876 29958 ft 485 kts 39°
2026-05-04 17:36 43.11318 -7.77813 30235 ft 485 kts 39°
2026-05-04 17:37 43.13846 -7.74750 30488 ft 484 kts 39°
2026-05-04 17:37 43.16369 -7.71693 30734 ft 484 kts 39°
2026-05-04 17:37 43.18892 -7.68637 31047 ft 482 kts 39°
2026-05-04 17:37 43.21407 -7.65583 31330 ft 481 kts 39°
2026-05-04 17:38 43.23875 -7.62574 31601 ft 480 kts 39°
2026-05-04 17:38 43.26364 -7.59534 31860 ft 479 kts 39°
2026-05-04 17:38 43.28861 -7.56482 32065 ft 480 kts 39°
2026-05-04 17:38 43.31354 -7.53431 32295 ft 480 kts 39°
2026-05-04 17:39 43.36345 -7.47321 32816 ft 479 kts 39°
2026-05-04 17:39 43.38835 -7.44274 33071 ft 479 kts 39°
2026-05-04 17:39 43.41323 -7.41230 33361 ft 478 kts 39°
2026-05-04 17:40 43.43806 -7.38184 33619 ft 477 kts 39°
2026-05-04 17:40 43.46278 -7.35141 33876 ft 477 kts 40°
2026-05-04 17:40 43.48745 -7.32100 34121 ft 476 kts 40°
2026-05-04 17:40 43.51185 -7.29090 34331 ft 476 kts 39°
2026-05-04 17:41 43.53654 -7.26042 34535 ft 475 kts 40°
2026-05-04 17:41 43.56112 -7.23000 34737 ft 475 kts 40°
2026-05-04 17:41 43.58569 -7.19956 34906 ft 476 kts 40°
2026-05-04 17:41 43.61039 -7.16899 35075 ft 476 kts 40°
2026-05-04 17:42 43.63504 -7.13847 35297 ft 475 kts 40°
2026-05-04 17:42 43.65969 -7.10791 35497 ft 474 kts 40°
2026-05-04 17:42 43.68425 -7.07743 35685 ft 474 kts 40°
2026-05-04 17:42 43.70876 -7.04691 35846 ft 473 kts 40°
2026-05-04 17:43 43.73289 -7.01679 36008 ft 473 kts 40°
2026-05-04 17:43 43.75736 -6.98622 36164 ft 473 kts 40°
2026-05-04 17:43 43.78178 -6.95572 36314 ft 473 kts 40°
2026-05-04 17:43 43.80622 -6.92520 36467 ft 473 kts 40°
2026-05-04 17:44 43.83067 -6.89465 36622 ft 473 kts 40°
2026-05-04 17:44 43.85509 -6.86410 36782 ft 472 kts 40°
2026-05-04 17:44 43.87941 -6.83362 36927 ft 472 kts 41°
2026-05-04 17:44 43.90376 -6.80302 37049 ft 472 kts 41°
2026-05-04 17:45 43.92807 -6.77243 37178 ft 472 kts 41°
2026-05-04 17:45 43.95236 -6.74183 37301 ft 472 kts 41°
2026-05-04 17:45 43.97660 -6.71123 37434 ft 471 kts 41°
2026-05-04 17:45 44.00089 -6.68053 37562 ft 471 kts 41°
2026-05-04 17:46 44.02513 -6.64991 37698 ft 471 kts 41°
2026-05-04 17:46 44.04937 -6.61931 37831 ft 470 kts 41°
2026-05-04 17:46 44.07351 -6.58879 37986 ft 469 kts 41°
2026-05-04 17:46 44.09739 -6.55855 38021 ft 470 kts 41°
2026-05-04 17:47 44.14590 -6.49697 38016 ft 473 kts 41°
2026-05-04 17:47 44.19456 -6.43499 38016 ft 474 kts 41°
2026-05-04 17:48 44.24336 -6.37274 38013 ft 475 kts 41°
2026-05-04 17:48 44.29217 -6.31047 38016 ft 474 kts 41°
2026-05-04 17:49 44.34053 -6.24848 38019 ft 475 kts 41°
2026-05-04 17:49 44.38928 -6.18589 38023 ft 475 kts 41°
2026-05-04 17:50 44.43799 -6.12323 38026 ft 475 kts 41°
2026-05-04 17:50 44.48653 -6.06046 38028 ft 475 kts 42°
2026-05-04 17:51 44.53512 -5.99753 38024 ft 475 kts 42°
2026-05-04 17:51 44.58338 -5.93499 38023 ft 475 kts 42°
2026-05-04 17:52 44.63192 -5.87187 38023 ft 475 kts 42°
2026-05-04 17:52 44.68021 -5.80843 38024 ft 475 kts 43°
2026-05-04 17:53 44.72772 -5.74363 38023 ft 476 kts 44°
2026-05-04 17:53 44.77490 -5.67820 38017 ft 476 kts 44°
2026-05-04 17:54 44.82223 -5.61280 38020 ft 477 kts 44°
2026-05-04 17:54 44.86941 -5.54789 38030 ft 477 kts 44°
2026-05-04 17:55 44.91685 -5.48245 38034 ft 476 kts 44°
2026-05-04 17:55 44.96416 -5.41693 38031 ft 476 kts 44°
2026-05-04 17:56 45.01140 -5.35146 38027 ft 475 kts 44°
2026-05-04 17:56 45.05833 -5.28619 38024 ft 475 kts 44°
2026-05-04 17:57 45.10549 -5.22044 38028 ft 475 kts 44°
2026-05-04 17:57 45.15247 -5.15461 38024 ft 475 kts 45°
2026-05-04 17:58 45.19944 -5.08873 38024 ft 475 kts 45°
2026-05-04 17:58 45.24640 -5.02282 38023 ft 475 kts 45°
2026-05-04 17:59 45.29330 -4.95677 38023 ft 475 kts 45°
2026-05-04 18:00 45.36328 -4.85793 38025 ft 474 kts 45°
2026-05-04 18:00 45.41011 -4.79154 38027 ft 474 kts 45°
2026-05-04 18:01 45.45680 -4.72509 38030 ft 474 kts 45°
2026-05-04 18:01 45.50349 -4.65857 38025 ft 474 kts 45°
2026-05-04 18:02 45.57351 -4.55859 38025 ft 475 kts 45°
2026-05-04 18:02 45.62013 -4.49181 38023 ft 475 kts 45°
2026-05-04 18:03 45.66653 -4.42529 38023 ft 475 kts 45°
2026-05-04 18:03 45.71313 -4.35825 38027 ft 475 kts 46°
2026-05-04 18:04 45.75965 -4.29103 38027 ft 475 kts 46°
2026-05-04 18:05 45.82940 -4.19005 38026 ft 474 kts 46°
2026-05-04 18:05 45.87573 -4.12268 38022 ft 474 kts 46°
2026-05-04 18:06 45.94509 -4.02156 38029 ft 473 kts 46°
2026-05-04 18:06 45.99091 -3.95450 38018 ft 472 kts 46°
2026-05-04 18:07 46.03692 -3.88709 38017 ft 472 kts 46°
2026-05-04 18:07 46.08285 -3.81962 38018 ft 472 kts 46°
2026-05-04 18:08 46.12872 -3.75208 38018 ft 471 kts 46°
2026-05-04 18:08 46.17446 -3.68448 38018 ft 471 kts 46°
2026-05-04 18:09 46.26599 -3.54875 38002 ft 471 kts 47°
2026-05-04 18:10 46.31137 -3.48116 38001 ft 471 kts 47°
2026-05-04 18:10 46.35703 -3.41305 38007 ft 472 kts 47°
2026-05-04 18:11 46.40270 -3.34470 38003 ft 472 kts 47°
2026-05-04 18:11 46.44846 -3.27612 38006 ft 472 kts 47°
2026-05-04 18:12 46.49411 -3.20759 37993 ft 473 kts 47°
2026-05-04 18:12 46.53207 -3.15028 38002 ft 473 kts 47°
2026-05-04 18:13 46.57504 -3.07838 38012 ft 470 kts 58°
2026-05-04 18:14 46.62466 -2.95567 38009 ft 468 kts 61°
2026-05-04 18:14 46.65757 -2.87368 38004 ft 468 kts 61°
2026-05-04 18:15 46.72289 -2.71010 38003 ft 468 kts 61°
2026-05-04 18:16 46.75554 -2.62787 38003 ft 469 kts 61°
2026-05-04 18:16 46.78822 -2.54541 37999 ft 469 kts 61°
2026-05-04 18:17 46.83707 -2.42163 37981 ft 469 kts 62°
2026-05-04 18:18 46.88656 -2.29788 37989 ft 470 kts 60°
2026-05-04 18:18 46.92107 -2.21718 37992 ft 471 kts 59°
2026-05-04 18:19 46.97319 -2.09527 37994 ft 471 kts 60°
2026-05-04 18:19 47.00741 -2.01333 37979 ft 471 kts 60°
2026-05-04 18:20 47.04032 -1.93036 37974 ft 470 kts 62°
2026-05-04 18:20 47.07184 -1.84680 37975 ft 471 kts 63°
2026-05-04 18:21 47.10360 -1.76270 37971 ft 471 kts 62°
2026-05-04 18:21 47.13574 -1.67851 37994 ft 472 kts 62°
2026-05-04 18:22 47.16815 -1.59455 37977 ft 472 kts 61°
2026-05-04 18:22 47.20371 -1.51311 37985 ft 474 kts 57°
2026-05-04 18:23 47.24114 -1.43318 37980 ft 474 kts 57°
2026-05-04 18:23 47.27781 -1.35333 37974 ft 474 kts 58°
2026-05-04 18:24 47.31398 -1.27191 37967 ft 474 kts 59°
2026-05-04 18:24 47.34988 -1.19035 37949 ft 474 kts 59°
2026-05-04 18:25 47.38589 -1.10879 37951 ft 475 kts 58°
2026-05-04 18:25 47.42206 -1.02711 37957 ft 475 kts 58°
2026-05-04 18:26 47.45815 -0.94531 37963 ft 474 kts 59°
2026-05-04 18:26 47.49406 -0.86345 37961 ft 474 kts 59°
2026-05-04 18:27 47.52974 -0.78192 37947 ft 474 kts 59°
2026-05-04 18:27 47.56551 -0.69986 37949 ft 474 kts 59°
2026-05-04 18:28 47.60131 -0.61755 37956 ft 475 kts 59°
2026-05-04 18:28 47.63706 -0.53524 37959 ft 475 kts 59°
2026-05-04 18:29 47.67277 -0.45277 37972 ft 475 kts 59°
2026-05-04 18:29 47.70840 -0.37013 37967 ft 475 kts 59°
2026-05-04 18:30 47.76161 -0.24604 37962 ft 474 kts 59°
2026-05-04 18:31 47.79705 -0.16319 37966 ft 474 kts 59°
2026-05-04 18:31 47.83218 -0.08079 37961 ft 474 kts 59°
2026-05-04 18:32 47.86754 0.00217 37951 ft 474 kts 59°
2026-05-04 18:32 47.90285 0.08525 37947 ft 474 kts 59°
2026-05-04 18:33 47.93806 0.16858 37951 ft 475 kts 59°
2026-05-04 18:33 47.97325 0.25210 37957 ft 475 kts 59°
2026-05-04 18:34 48.00846 0.33576 37956 ft 476 kts 59°
2026-05-04 18:34 48.04338 0.41913 37958 ft 476 kts 60°
2026-05-04 18:35 48.07836 0.50324 37953 ft 476 kts 60°
2026-05-04 18:35 48.11340 0.58751 37952 ft 476 kts 59°
2026-05-04 18:36 48.15275 0.66755 37962 ft 478 kts 54°
2026-05-04 18:36 48.19313 0.74672 37962 ft 478 kts 54°
2026-05-04 18:37 48.23323 0.82555 37971 ft 478 kts 54°
2026-05-04 18:37 48.27352 0.90495 37963 ft 478 kts 54°
2026-05-04 18:38 48.31367 0.98458 37964 ft 478 kts 54°
2026-05-04 18:38 48.35376 1.06451 37958 ft 478 kts 54°
2026-05-04 18:39 48.39376 1.14433 37964 ft 478 kts 54°
2026-05-04 18:39 48.43353 1.22360 37967 ft 478 kts 54°
2026-05-04 18:40 48.47326 1.30317 37947 ft 478 kts 54°
2026-05-04 18:40 48.51316 1.38341 37943 ft 478 kts 54°
2026-05-04 18:41 48.55298 1.46384 37949 ft 478 kts 54°
2026-05-04 18:41 48.59280 1.54445 37956 ft 478 kts 54°
2026-05-04 18:42 48.63224 1.62550 37953 ft 478 kts 58°
2026-05-04 18:42 48.66033 1.71500 37962 ft 473 kts 72°
2026-05-04 18:43 48.68294 1.80851 37948 ft 474 kts 71°
2026-05-04 18:43 48.70567 1.90218 37956 ft 474 kts 71°
2026-05-04 18:44 48.72827 1.99596 37958 ft 474 kts 72°
2026-05-04 18:44 48.75078 2.08989 37962 ft 474 kts 72°
2026-05-04 18:45 48.77069 2.18511 37947 ft 473 kts 77°
2026-05-04 18:45 48.78725 2.28180 37950 ft 473 kts 78°
2026-05-04 18:46 48.80344 2.37868 37957 ft 474 kts 77°
2026-05-04 18:46 48.82049 2.47534 37961 ft 475 kts 77°
2026-05-04 18:47 48.83798 2.57199 37962 ft 475 kts 77°
2026-05-04 18:47 48.85521 2.66898 37947 ft 475 kts 77°
2026-05-04 18:48 48.87214 2.76614 37956 ft 476 kts 77°
2026-05-04 18:48 48.88907 2.86357 37957 ft 476 kts 77°
2026-05-04 18:49 48.90600 2.96088 37962 ft 476 kts 77°
2026-05-04 18:49 48.92280 3.05778 37962 ft 476 kts 77°
2026-05-04 18:50 48.93947 3.15521 37952 ft 476 kts 77°
2026-05-04 18:50 48.95603 3.25272 37958 ft 476 kts 77°
2026-05-04 18:51 48.97260 3.35033 37959 ft 476 kts 77°
2026-05-04 18:51 48.98912 3.44793 37960 ft 476 kts 77°
2026-05-04 18:52 49.00553 3.54562 37945 ft 476 kts 78°
2026-05-04 18:52 49.01907 3.62684 37951 ft 475 kts 78°
2026-05-04 18:53 49.03794 3.74042 37954 ft 475 kts 78°
2026-05-04 18:53 49.05144 3.82223 37960 ft 475 kts 78°
2026-05-04 18:54 49.06740 3.91988 37968 ft 475 kts 78°
2026-05-04 18:54 49.08339 4.01765 37966 ft 475 kts 78°
2026-05-04 18:55 49.09919 4.11474 37965 ft 474 kts 78°
2026-05-04 18:55 49.12284 4.26146 37963 ft 474 kts 78°
2026-05-04 18:56 49.13897 4.35911 37958 ft 475 kts 73°
2026-05-04 18:56 49.16376 4.45290 37937 ft 476 kts 69°
2026-05-04 18:57 49.18914 4.54651 37938 ft 477 kts 69°
2026-05-04 18:57 49.21437 4.64037 37961 ft 477 kts 69°
2026-05-04 18:58 49.23945 4.73380 37966 ft 477 kts 69°
2026-05-04 18:58 49.26470 4.82787 37969 ft 477 kts 69°
2026-05-04 18:59 49.28985 4.92196 37949 ft 477 kts 70°
2026-05-04 18:59 49.31484 5.01600 37957 ft 476 kts 70°
2026-05-04 19:00 49.33972 5.11031 37963 ft 476 kts 70°
2026-05-04 19:00 49.36449 5.20454 37965 ft 476 kts 70°
2026-05-04 19:01 49.38909 5.29821 37970 ft 476 kts 70°
2026-05-04 19:01 49.41376 5.39264 37968 ft 476 kts 70°
2026-05-04 19:02 49.43835 5.48717 37975 ft 475 kts 70°
2026-05-04 19:02 49.46285 5.58161 37980 ft 475 kts 70°
2026-05-04 19:03 49.48708 5.67551 37983 ft 475 kts 70°
2026-05-04 19:03 49.51933 5.76417 37983 ft 478 kts 52°
2026-05-04 19:04 49.54070 5.80023 37733 ft 479 kts 43°
2026-05-04 19:04 49.56640 5.83232 37466 ft 479 kts 34°
2026-05-04 19:04 49.59436 5.86038 37171 ft 476 kts 32°
2026-05-04 19:04 49.62187 5.88775 36907 ft 466 kts 33°
2026-05-04 19:05 49.64883 5.91483 36641 ft 457 kts 33°
2026-05-04 19:05 49.67526 5.94154 36374 ft 448 kts 33°
2026-05-04 19:05 49.70080 5.96736 36121 ft 443 kts 33°
2026-05-04 19:05 49.72648 5.99330 35865 ft 440 kts 33°
2026-05-04 19:06 49.75203 6.01912 35605 ft 437 kts 33°
2026-05-04 19:06 49.77744 6.04478 35353 ft 436 kts 33°
2026-05-04 19:06 49.80286 6.07046 35112 ft 435 kts 33°
2026-05-04 19:06 49.82884 6.09420 34877 ft 433 kts 26°
2026-05-04 19:07 49.85639 6.11219 34632 ft 431 kts 17°
2026-05-04 19:07 49.88524 6.12412 34392 ft 428 kts
2026-05-04 19:07 49.91467 6.12972 34152 ft 425 kts 359°
2026-05-04 19:07 49.94414 6.13025 33905 ft 422 kts 356°
2026-05-04 19:08 49.97350 6.13038 33622 ft 421 kts 357°
2026-05-04 19:08 50.00272 6.13056 33346 ft 419 kts 357°
2026-05-04 19:08 50.03178 6.13076 33072 ft 417 kts 357°
2026-05-04 19:08 50.06074 6.13090 32807 ft 414 kts 356°
2026-05-04 19:09 50.08952 6.13107 32540 ft 412 kts 356°
2026-05-04 19:09 50.11804 6.13123 32275 ft 411 kts 357°
2026-05-04 19:09 50.14682 6.13136 31638 ft 417 kts 357°
2026-05-04 19:09 50.17582 6.13144 30516 ft 435 kts 357°
2026-05-04 19:10 50.20734 6.13158 29238 ft 452 kts 358°
2026-05-04 19:10 50.23930 6.13190 27902 ft 467 kts 360°
2026-05-04 19:10 50.27166 6.13719 26599 ft 480 kts
2026-05-04 19:10 50.30411 6.15078 25744 ft 483 kts 19°
2026-05-04 19:11 50.33459 6.17156 25410 ft 470 kts 27°
2026-05-04 19:11 50.36215 6.19742 25312 ft 454 kts 33°
2026-05-04 19:11 50.38824 6.22383 25206 ft 438 kts 33°
2026-05-04 19:11 50.41337 6.24937 25109 ft 424 kts 33°
2026-05-04 19:12 50.43777 6.27433 24948 ft 413 kts 33°
2026-05-04 19:12 50.48383 6.32185 23914 ft 413 kts 33°
2026-05-04 19:12 50.50947 6.34785 23290 ft 414 kts 32°
2026-05-04 19:13 50.53380 6.37094 22987 ft 405 kts 30°
2026-05-04 19:13 50.55796 6.39292 22788 ft 395 kts 30°
2026-05-04 19:13 50.58190 6.41435 22064 ft 398 kts 30°
2026-05-04 19:13 50.60636 6.43629 21103 ft 410 kts 30°
2026-05-04 19:14 50.63106 6.45861 20564 ft 408 kts 30°
2026-05-04 19:14 50.65553 6.48096 20049 ft 406 kts 31°
2026-05-04 19:14 50.67993 6.50347 19516 ft 402 kts 31°
2026-05-04 19:14 50.70358 6.52549 18625 ft 398 kts 31°
2026-05-04 19:15 50.72707 6.54742 18054 ft 384 kts 31°
2026-05-04 19:15 50.74996 6.56878 17525 ft 369 kts 31°
2026-05-04 19:15 50.77143 6.58877 17054 ft 356 kts 31°
2026-05-04 19:15 50.79238 6.60826 16588 ft 344 kts 31°
2026-05-04 19:16 50.81309 6.62613 16138 ft 333 kts 24°
2026-05-04 19:16 50.83464 6.63795 15697 ft 324 kts 13°
2026-05-04 19:16 50.85641 6.64369 15273 ft 315 kts
2026-05-04 19:16 50.87788 6.64809 14860 ft 309 kts
2026-05-04 19:17 50.89925 6.65242 14452 ft 311 kts
2026-05-04 19:17 50.92087 6.65680 14049 ft 314 kts
2026-05-04 19:17 50.94273 6.66123 13623 ft 317 kts
2026-05-04 19:17 50.96464 6.66567 13170 ft 319 kts
2026-05-04 19:18 50.98639 6.67007 12739 ft 320 kts
2026-05-04 19:18 51.00886 6.67462 12293 ft 321 kts
2026-05-04 19:18 51.03082 6.67907 11863 ft 322 kts
2026-05-04 19:18 51.05307 6.68356 11433 ft 322 kts
2026-05-04 19:19 51.07534 6.68803 11045 ft 321 kts
2026-05-04 19:19 51.09718 6.69247 10957 ft 309 kts
2026-05-04 19:19 51.11705 6.70238 10971 ft 293 kts 32°
2026-05-04 19:19 51.13183 6.72285 10973 ft 280 kts 51°
2026-05-04 19:20 51.14433 6.74645 10977 ft 277 kts 53°
2026-05-04 19:20 51.15637 6.77017 10972 ft 274 kts 53°
2026-05-04 19:20 51.16825 6.79376 10974 ft 273 kts 53°
2026-05-04 19:20 51.18017 6.81744 10974 ft 273 kts 53°
2026-05-04 19:21 51.19209 6.84119 10803 ft 274 kts 53°
2026-05-04 19:21 51.20381 6.86456 10562 ft 272 kts 53°
2026-05-04 19:21 51.21565 6.88822 10221 ft 273 kts 53°
2026-05-04 19:21 51.22750 6.91200 9858 ft 274 kts 53°
2026-05-04 19:22 51.23939 6.93585 9461 ft 275 kts 53°
2026-05-04 19:22 51.25133 6.95980 9072 ft 275 kts 53°
2026-05-04 19:22 51.26327 6.98382 8673 ft 276 kts 53°
2026-05-04 19:22 51.27517 7.00775 8282 ft 275 kts 53°
2026-05-04 19:23 51.28709 7.03172 7896 ft 275 kts 53°
2026-05-04 19:23 51.29898 7.05571 7490 ft 275 kts 53°
2026-05-04 19:23 51.31085 7.07965 7102 ft 275 kts 53°
2026-05-04 19:23 51.32255 7.10333 6713 ft 275 kts 53°
2026-05-04 19:24 51.33439 7.12733 6329 ft 274 kts 53°
2026-05-04 19:24 51.34625 7.15125 5869 ft 275 kts 53°
2026-05-04 19:24 51.35810 7.17532 5410 ft 275 kts 53°
2026-05-04 19:24 51.36983 7.19963 4943 ft 276 kts 53°
2026-05-04 19:25 51.38141 7.22417 4489 ft 277 kts 53°
2026-05-04 19:25 51.39299 7.24887 4024 ft 277 kts 53°
2026-05-04 19:25 51.40458 7.27364 3561 ft 277 kts 53°
2026-05-04 19:25 51.41630 7.29807 3129 ft 276 kts 47°
2026-05-04 19:26 51.43171 7.31446 3007 ft 260 kts 17°
2026-05-04 19:26 51.44881 7.31628 3015 ft 239 kts 345°
2026-05-04 19:26 51.46302 7.30421 3012 ft 231 kts 312°
2026-05-04 19:26 51.47063 7.28264 3014 ft 227 kts 279°
2026-05-04 19:27 51.47131 7.25751 3015 ft 226 kts 265°
2026-05-04 19:27 51.47017 7.23234 3014 ft 227 kts 264°
2026-05-04 19:27 51.46876 7.20710 3018 ft 227 kts 263°
2026-05-04 19:27 51.46729 7.18171 3014 ft 228 kts 259°
2026-05-04 19:28 51.46176 7.15819 3016 ft 226 kts 238°
2026-05-04 19:28 51.45377 7.13653 3014 ft 226 kts 238°
2026-05-04 19:28 51.44568 7.11485 3014 ft 226 kts 238°
2026-05-04 19:28 51.43760 7.09323 3008 ft 226 kts 238°
2026-05-04 19:29 51.42947 7.07156 3010 ft 226 kts 238°
2026-05-04 19:29 51.42136 7.04999 3010 ft 226 kts 237°
2026-05-04 19:29 51.41345 7.02849 2995 ft 226 kts 240°
2026-05-04 19:29 51.40550 7.00693 3011 ft 220 kts 235°
2026-05-04 19:30 51.39696 6.98767 3003 ft 204 kts 232°
2026-05-04 19:30 51.38878 6.97024 3032 ft 188 kts 231°
2026-05-04 19:30 51.38111 6.95401 2859 ft 180 kts 231°
2026-05-04 19:30 51.37372 6.93839 2639 ft 173 kts 231°
2026-05-04 19:31 51.36659 6.92333 2432 ft 165 kts 231°
2026-05-04 19:31 51.35979 6.90897 2217 ft 159 kts 230°
2026-05-04 19:31 51.35314 6.89492 1997 ft 157 kts 231°
2026-05-04 19:31 51.34685 6.88164 1800 ft 144 kts 230°
2026-05-04 19:32 51.34096 6.86923 1603 ft 139 kts 230°
2026-05-04 19:32 51.33515 6.85697 1420 ft 138 kts 230°
2026-05-04 19:32 51.32941 6.84489 1229 ft 137 kts 231°
2026-05-04 19:32 51.32364 6.83273 1044 ft 137 kts 229°
2026-05-04 19:33 51.31782 6.82047 863 ft 137 kts 227°
2026-05-04 19:33 51.31214 6.80815 647 ft 136 kts 229°
2026-05-04 19:33 51.30649 6.79637 447 ft 132 kts 230°
2026-05-04 19:33 51.30070 6.78452 282 ft 136 kts 232°
2026-05-04 19:34 51.29509 6.77252 135 ft 131 kts 231°
2026-05-04 19:34 51.29183 6.76589 129 ft 89 kts 232°
2026-05-04 19:34 51.28853 6.75893 121 ft 39 kts 231°
2026-05-04 19:34 51.28663 6.75686 125 ft 29 kts 195°
2026-05-04 19:35 51.28492 6.75744 124 ft 12 kts 147°
2026-05-04 19:35 51.28488 6.75748 122 ft 0 kts 147°
2026-05-04 19:39 51.28489 6.75748 122 ft 0 kts 147°
2026-05-04 19:40 51.28486 6.75750 123 ft 3 kts 147°
2026-05-04 19:40 51.28450 6.75791 121 ft 6 kts 142°
2026-05-04 19:40 51.28436 6.75809 120 ft 0 kts 142°
2026-05-04 19:43 51.28406 6.75845 123 ft 11 kts 142°
2026-05-04 19:44 51.28319 6.75952 123 ft 17 kts 142°
2026-05-04 19:44 51.28235 6.75980 124 ft 13 kts 205°
2026-05-04 19:44 51.28156 6.75921 125 ft 12 kts 205°
2026-05-04 19:44 51.28143 6.75911 128 ft 0 kts 205°
2026-05-04 19:46 51.28097 6.75877 128 ft 17 kts 204°
2026-05-04 19:46 51.28025 6.75821 125 ft 0 kts 210°
2026-05-04 19:46 51.27958 6.75821 126 ft 19 kts 185°
2026-05-04 19:47 51.27913 6.75818 127 ft 0 kts 181°
2026-05-04 19:48 51.27911 6.75818 127 ft 2 kts 181°
2026-05-04 19:48 51.27846 6.75816 127 ft 13 kts 181°
2026-05-04 19:49 51.27751 6.75813 127 ft 13 kts 181°
2026-05-04 19:49 51.27716 6.75812 128 ft 4 kts 181°
2026-05-04 19:49 51.27708 6.75849 128 ft 6 kts 88°
2026-05-04 19:49 51.27708 6.75905 128 ft 3 kts 91°
2026-05-04 19:50 51.27708 6.75908 128 ft 0 kts 91°